Hourly Data Report for October 25, 2016

All times are specified in Local Standard Time (LST). Add 1 hour to adjust for Daylight Saving Time where and when it is observed.

CHARLOTTETOWN A
PRINCE EDWARD ISLAND

46°17'21.000" N
63°07'09.000" W
48.50 m
8300301
71706
YYG

Download Data

Hourly Data (October 2016)
Hourly Data Report for October 25, 2016
Temp Definition
°C
Dew Point Temp Definition
°C
Rel Hum Definition
%
Wind Dir Definition
10's deg

Wind Spd Definition
km/h
Visibility Definition
km
Stn Press Definition
kPa
Hmdx Definition


Wind Chill Definition


Weather Definition


TIME
00:00 Legend Double Dagger 5.0 -1.7 62 24 14 24.1 99.91     LegendNANA
01:00 Legend Double Dagger 4.8 -1.4 64 25 17 24.1 99.93     LegendNANA
02:00 Legend Double Dagger 3.7 -1.5 69 25 18 24.1 99.94     Mainly Clear
03:00 Legend Double Dagger 3.3 -1.5 71 25 16 24.1 99.93     LegendNANA
04:00 Legend Double Dagger 3.1 -1.7 71 24 17 24.1 99.97     LegendNANA
05:00 Legend Double Dagger 2.6 -1.6 74 24 13 24.1 99.99     Mostly Cloudy
06:00 Legend Double Dagger 2.2 -1.1 79 24 13 24.1 100.03     LegendNANA
07:00 Legend Double Dagger 2.1 -0.8 81 25 12 24.1 100.10     LegendNANA
08:00 Legend Double Dagger 2.7 -0.1 82 24 18 24.1 100.17     Mostly Cloudy
09:00 Legend Double Dagger 3.9 0.2 77 25 18 24.1 100.20     LegendNANA
10:00 Legend Double Dagger 4.7 0.3 73 24 17 24.1 100.21     LegendNANA
11:00 Legend Double Dagger 5.4 -0.2 67 23 20 24.1 100.22     Mostly Cloudy
12:00 Legend Double Dagger 5.4 0.0 68 24 19 24.1 100.24     LegendNANA
13:00 Legend Double Dagger 5.5 0.5 70 26 12 24.1 100.29     LegendNANA
14:00 Legend Double Dagger 5.6 0.2 68 24 17 24.1 100.32     Cloudy
15:00 Legend Double Dagger 5.5 0.9 72 27 14 24.1 100.36     LegendNANA
16:00 Legend Double Dagger 5.0 1.7 79 28 11 24.1 100.41     LegendNANA
17:00 Legend Double Dagger 4.5 1.9 83 28 10 24.1 100.46     Cloudy
18:00 Legend Double Dagger 4.4 2.3 86 28 10 24.1 100.55     Rain Showers
19:00 Legend Double Dagger 4.2 2.7 90 26 8 24.1 100.60     Rain Showers
20:00 Legend Double Dagger 4.0 2.8 92 25 8 24.1 100.63     Rain Showers
21:00 Legend Double Dagger 3.3 2.3 93 25 7 24.1 100.68     LegendNANA
22:00 Legend Double Dagger 2.3 1.4 94 24 4 24.1 100.74     LegendNANA
23:00 Legend Double Dagger 1.3 0.4 94 26 4 24.1 100.77     Clear

Notes on Data Quality.

Legend

  • E = Estimated
  • M = Missing
  • NA = Not Available
  • ‡ = Partner data that is not subject to review by the National Climate Archives
Date modified: